Hall Beach,

3:33 PM EDT on June 26, 2017 (GMT -0400)
Hall Beach

Weather History for CYUX - September, 2012

Change the Weather History Date:

Saturday, September 15, 2012

  Actual Average Record
Temperature  
Mean Temperature 32 °F -  
Max Temperature 35 °F 28 °F 42 °F (2015)
Min Temperature 30 °F 18 °F 26 °F (1997)
Degree Days  
Heating Degree Days 32    
Moisture  
Dew Point 31 °F    
Average Humidity 95    
Maximum Humidity 100    
Minimum Humidity 87    
Precipitation  
Precipitation 0.00 in 0.03 in - ()
Sea Level Pressure  
Sea Level Pressure 29.81 in    
Wind  
Wind Speed 5 mph ()    
Max Wind Speed 13 mph    
Max Gust Speed -    
Visibility 9.5 miles    
Events Snow    
Averages and records for this station are not official NWS values.
T = Trace of Precipitation, MM = Missing Value Source: Averaged Metar Reports

Daily Weather History Graph

Daily Weather History Graph

Search for Another Location

Airport or City:

Trip Planner

Search our weather history database for the weather conditions in past years. The results will help you decide how hot, cold, wet, or windy it might be!

Date:

Astronomy

Sep. 15, 2012 Rise Set
Actual Time 6:42 AM EDT 7:55 PM EDT
Civil Twilight 5:42 AM EDT 8:55 PM EDT
Nautical Twilight 4:21 AM EDT 10:14 PM EDT
Astronomical Twilight 2:02 AM EDT 12:20 AM EDT
Moon 6:23 AM EDT (9/15) 6:55 PM EDT (9/15)
Length of Visible Light 15h 13m
Length of Day
13h 13m
Waning Crescent, 0% of the Moon is Illuminated
Sep 15
Waning Crescent
Sep 15
New
Sep 22
First Quarter
Sep 29
Full
Oct 8
Last Quarter

Hourly Weather History & Observations

Time (EDT) Temp. Windchill Dew Point Humidity Pressure Visibility Wind Dir Wind Speed Gust Speed Precip Events Conditions
12:00 AM 35.6 °F 32.8 °F 32.0 °F 87% 29.75 in 9.0 mi South 3.5 mph - N/A   Overcast
12:18 AM 35.6 °F - 33.8 °F 93% 29.74 in 9.0 mi Calm Calm - N/A   Scattered Clouds
12:51 AM 33.8 °F 29.6 °F 32.0 °F 93% 29.75 in 9.0 mi South 4.6 mph - N/A   Mostly Cloudy
1:00 AM 33.8 °F 29.6 °F 32.0 °F 93% 29.75 in 9.0 mi South 4.6 mph - N/A   Mostly Cloudy
1:37 AM 33.8 °F 29.6 °F 32.0 °F 93% 29.75 in 9.0 mi SSW 4.6 mph - N/A   Scattered Clouds
2:00 AM 33.8 °F 29.6 °F 32.0 °F 93% 29.75 in 9.0 mi SW 4.6 mph - N/A   Scattered Clouds
2:01 AM 33.8 °F 29.6 °F 32.0 °F 93% 29.75 in 9.0 mi SW 4.6 mph - N/A   Mostly Cloudy
2:49 AM 33.8 °F - 30.2 °F 87% 29.75 in 9.0 mi SW 2.3 mph - N/A   Scattered Clouds
3:00 AM 33.8 °F - 30.2 °F 87% 29.75 in 9.0 mi SSW 2.3 mph - N/A   Partly Cloudy
4:00 AM 32.0 °F - 30.2 °F 93% 29.76 in 9.0 mi Calm Calm - N/A   Scattered Clouds
4:26 AM 30.2 °F - 30.2 °F 100% 29.76 in 9.0 mi Variable 2.3 mph - N/A   Mostly Cloudy
5:00 AM 32.0 °F - 32.0 °F 100% 29.76 in 9.0 mi NNW 2.3 mph - N/A   Overcast
6:45 AM 32.0 °F - 30.2 °F 93% 29.76 in 9.0 mi Variable 2.3 mph - N/A   Scattered Clouds
7:00 AM 32.0 °F 28.7 °F 30.2 °F 93% 29.77 in 9.0 mi NNW 3.5 mph - N/A   Partly Cloudy
7:21 AM 30.2 °F 24.3 °F 30.2 °F 100% 29.78 in 9.0 mi North 5.8 mph - N/A   Mostly Cloudy
8:00 AM 33.8 °F 27.7 °F 33.8 °F 100% 29.78 in 15.0 mi NNE 6.9 mph - N/A   Mostly Cloudy
9:00 AM 33.8 °F 28.6 °F 32.0 °F 93% 29.79 in 15.0 mi NE 5.8 mph - N/A   Mostly Cloudy
10:00 AM 33.8 °F 27.0 °F 32.0 °F 93% 29.79 in 15.0 mi NNE 8.1 mph - N/A   Mostly Cloudy
11:00 AM 33.8 °F 27.7 °F 33.8 °F 100% 29.80 in 15.0 mi North 6.9 mph - N/A   Mostly Cloudy
12:00 PM 33.8 °F 26.4 °F 33.8 °F 100% 29.81 in 15.0 mi NNE 9.2 mph - N/A   Mostly Cloudy
1:00 PM 35.6 °F 29.9 °F 33.8 °F 93% 29.81 in 15.0 mi ENE 6.9 mph - N/A   Mostly Cloudy
2:00 PM 35.6 °F 28.0 °F 33.8 °F 93% 29.81 in 15.0 mi ENE 10.4 mph - N/A   Mostly Cloudy
2:13 PM 33.8 °F 26.4 °F 33.8 °F 100% 29.81 in 15.0 mi ENE 9.2 mph - N/A   Overcast
3:00 PM 33.8 °F 27.0 °F 33.8 °F 100% 29.82 in 1.0 mi East 8.1 mph - N/A   Overcast
3:38 PM 33.8 °F 27.7 °F 33.8 °F 100% 29.83 in 1.5 mi ENE 6.9 mph - N/A   Overcast
4:00 PM 33.8 °F 27.7 °F 33.8 °F 100% 29.83 in 15.0 mi ENE 6.9 mph - N/A   Overcast
4:20 PM 33.8 °F 27.7 °F 33.8 °F 100% 29.83 in 15.0 mi ENE 6.9 mph - N/A   Overcast
5:00 PM 35.6 °F 28.0 °F 32.0 °F 87% 29.84 in 15.0 mi ENE 10.4 mph - N/A   Overcast
6:00 PM 33.8 °F 25.8 °F 32.0 °F 93% 29.84 in 15.0 mi ENE 10.4 mph - N/A   Mostly Cloudy
7:00 PM 33.8 °F 26.4 °F 30.2 °F 87% 29.84 in 15.0 mi ENE 9.2 mph - N/A   Overcast
8:00 PM 32.0 °F 22.5 °F 30.2 °F 93% 29.84 in 15.0 mi NNE 12.7 mph - N/A   Overcast
8:04 PM 32.0 °F 23.6 °F 30.2 °F 93% 29.85 in 9.0 mi NNE 10.4 mph - N/A   Overcast
9:00 PM 32.0 °F 24.2 °F 30.2 °F 93% 29.86 in 9.0 mi NE 9.2 mph - N/A   Overcast
9:19 PM 32.0 °F 23.6 °F 30.2 °F 93% 29.86 in 9.0 mi ENE 10.4 mph - N/A   Overcast
9:32 PM 30.2 °F 21.3 °F 30.2 °F 100% 29.86 in 5.0 mi NE 10.4 mph - N/A   Overcast
9:35 PM 30.2 °F 20.8 °F 30.2 °F 100% 29.86 in 3.0 mi ENE 11.5 mph - N/A Snow Light Snow
9:38 PM 30.2 °F 21.3 °F 30.2 °F 100% 29.86 in 2.2 mi NE 10.4 mph - N/A Snow Light Snow
9:39 PM 30.2 °F 21.3 °F 30.2 °F 100% 29.86 in 2.0 mi NE 10.4 mph - N/A Snow Light Snow
9:57 PM 30.2 °F 20.2 °F 28.4 °F 93% 29.86 in 2.2 mi NE 12.7 mph - N/A Snow Light Snow
10:00 PM 30.2 °F 20.8 °F 28.4 °F 93% 29.86 in 2.5 mi NE 11.5 mph - N/A Snow Light Snow
10:01 PM 30.2 °F 20.2 °F 28.4 °F 93% 29.86 in 3.0 mi NE 12.7 mph - N/A Snow Light Snow
10:05 PM 30.2 °F 21.3 °F 30.2 °F 100% 29.86 in 6.0 mi NE 10.4 mph - N/A Snow Light Snow
10:11 PM 30.2 °F 21.9 °F 28.4 °F 93% 29.86 in 9.0 mi ENE 9.2 mph - N/A   Overcast
11:00 PM 30.2 °F 21.9 °F 30.2 °F 100% 29.85 in 9.0 mi ENE 9.2 mph - N/A   Overcast